Location: Eschertshofen
(49.3064°N, 11.5756°E)
Time: 15:27:25
(UTC+00:00)

Spot 2 Rocket - Pass Details

Date: 20 June 2021
Orbit: 757 x 771 km, 98.5° (Epoch: 25 July)

Event Time Altitude Azimuth Distance (km) Brightness Sun altitude
Exits shadow 22:08:40 - 224° (SW) 3,007 6.3 -15.7°
Reaches altitude 10° 22:11:45 10° 250° (WSW) 2,300 5.9 -15.9°
Maximum altitude 22:13:49 12° 274° (W) 2,142 6.0 -16.0°
Drops below altitude 10° 22:15:54 10° 299° (WNW) 2,311 6.6 -16.1°
Sets 22:19:46 0° 328° (NNW) 3,248 8.2 -16.2°
